Location: Daerah Kuala Lumpur
(3.1167°N, 101.6833°E)
Time: 15:04:19
(UTC+00:00)

BlueWalker 3 - Pass Details

Date: 21 February 2026
Orbit: 451 x 458 km, 53.2° (Epoch: 6 March)

Event Time Altitude Azimuth Distance (km) Brightness Sun altitude
Exits shadow 22:31:15 11° 336° (NNW) 1,557 4.1 -14.2°
Drops below altitude 10° 22:31:23 10° 338° (NNW) 1,584 4.2 -14.2°
Sets 22:34:21 0° 5° (N) 2,456 5.4 -13.5°
